Rugby, ND

11:41 PM CST on December 10, 2019 (GMT -0600)
Rugby Municipal

Weather History for KRUG - October, 2019

Change the Weather History Date:

Thursday, October 10, 2019

  Actual Average Record
Temperature  
Mean Temperature 30 °F -  
Max Temperature 32 °F 57 °F 85 °F (1955)
Min Temperature 28 °F 34 °F 10 °F (1987)
Degree Days  
Heating Degree Days 35    
Moisture  
Dew Point 29 °F    
Average Humidity 95    
Maximum Humidity 100    
Minimum Humidity 87    
Precipitation  
Precipitation 0.00 in - - ()
Sea Level Pressure  
Sea Level Pressure 30.12 in    
Wind  
Wind Speed 18 mph (NNW)    
Max Wind Speed 24 mph    
Max Gust Speed 33 mph    
Visibility 5 miles    
Events Rain , Snow    
Averages and records for this station are not official NWS values.
T = Trace of Precipitation, MM = Missing Value Source: NWS Daily Summary

Daily Weather History Graph

Daily Weather History Graph

Search for Another Location

Airport or City:

Astronomy

Oct. 10, 2019 Rise Set
Actual Time 7:52 AM CDT 7:01 PM CDT
Civil Twilight 7:20 AM CDT 7:32 PM CDT
Nautical Twilight 6:44 AM CDT 8:08 PM CDT
Astronomical Twilight 6:08 AM CDT 8:44 PM CDT
Moon 6:22 PM CDT (10/10) 4:15 AM CDT (10/10)
Length of Visible Light 12h 11m
Length of Day
11h 08m
Waxing Gibbous, 91% of the Moon is Illuminated
Oct 10
Waxing Gibbous
Oct 13
Full
Oct 21
Last Quarter
Oct 27
New
Nov 4
First Quarter

Hourly Weather History & Observations

Time (CDT) Temp. Windchill Dew Point Humidity Pressure Visibility Wind Dir Wind Speed Gust Speed Precip Events Conditions
12:15 AM 32.0 °F 21.2 °F 30.2 °F 93% 30.15 in 10.0 mi NNW 16.1 mph - N/A   Overcast
12:35 AM 32.0 °F 21.2 °F 28.4 °F 87% 30.15 in 10.0 mi NNW 16.1 mph 23.0 mph N/A   Overcast
12:55 AM 30.2 °F 18.9 °F 28.4 °F 93% 30.16 in 10.0 mi NNW 16.1 mph 24.2 mph N/A   Unknown
1:15 AM 30.2 °F 18.5 °F 28.4 °F 93% 30.14 in 10.0 mi North 17.3 mph 23.0 mph N/A   Unknown
1:35 AM 30.2 °F 19.3 °F 30.2 °F 100% 30.15 in 10.0 mi North 15.0 mph 20.7 mph N/A   Overcast
1:55 AM 30.2 °F 18.5 °F 30.2 °F 100% 30.15 in 10.0 mi North 17.3 mph - N/A   Overcast
2:15 AM 30.2 °F 18.5 °F 30.2 °F 100% 30.15 in 10.0 mi NNW 17.3 mph 24.2 mph N/A   Overcast
2:35 AM 30.2 °F 19.3 °F 30.2 °F 100% 30.16 in 10.0 mi NNW 15.0 mph 20.7 mph N/A   Overcast
2:55 AM 30.2 °F 18.9 °F 30.2 °F 100% 30.17 in 10.0 mi NNW 16.1 mph - N/A   Overcast
3:15 AM 30.2 °F 18.9 °F 30.2 °F 100% 30.15 in 10.0 mi NNW 16.1 mph - N/A   Overcast
3:35 AM 30.2 °F 19.3 °F 30.2 °F 100% 30.15 in 7.0 mi North 15.0 mph 21.9 mph N/A   Overcast
3:55 AM 30.2 °F 18.1 °F 30.2 °F 100% 30.14 in 7.0 mi NNW 18.4 mph - N/A   Overcast
4:15 AM 30.2 °F 17.8 °F 30.2 °F 100% 30.13 in 4.0 mi North 19.6 mph 25.3 mph N/A Snow Light Snow
4:35 AM 30.2 °F 18.1 °F 30.2 °F 100% 30.13 in 4.0 mi North 18.4 mph - N/A Snow Light Snow
4:55 AM 30.2 °F 19.8 °F 30.2 °F 100% 30.15 in 5.0 mi North 13.8 mph 21.9 mph N/A Snow Light Snow
5:15 AM 30.2 °F 20.2 °F 30.2 °F 100% 30.15 in 9.0 mi North 12.7 mph - N/A   Overcast
5:55 AM 30.2 °F 18.9 °F 30.2 °F 100% 30.14 in 9.0 mi North 16.1 mph - N/A   Overcast
6:15 AM 30.2 °F 18.5 °F 30.2 °F 100% 30.14 in 1.8 mi NNW 17.3 mph - N/A Snow Light Snow
6:35 AM 30.2 °F 18.5 °F 30.2 °F 100% 30.12 in 1.0 mi NNW 17.3 mph - N/A Snow Light Snow
6:55 AM - - - N/A% 30.12 in 1.5 mi North 17.3 mph - N/A   Unknown
7:15 AM 28.4 °F 16.2 °F 28.4 °F 100% 30.13 in 1.5 mi NNW 17.3 mph - N/A Snow Light Snow
7:35 AM - - - N/A% 30.15 in 1.5 mi NNW 15.0 mph - N/A   Unknown
7:55 AM 30.2 °F 18.1 °F 30.2 °F 100% 30.16 in 1.5 mi NW 18.4 mph - N/A Snow Light Snow
8:15 AM 30.2 °F 18.5 °F 30.2 °F 100% 30.16 in 0.5 mi NNW 17.3 mph - N/A Snow Light Snow
8:35 AM 30.2 °F 18.9 °F 30.2 °F 100% 30.18 in 0.5 mi NW 16.1 mph - N/A Snow Light Snow
8:55 AM 30.2 °F 18.5 °F 30.2 °F 100% 30.18 in 0.2 mi NW 17.3 mph - N/A Snow Snow
9:15 AM 30.2 °F 18.9 °F 30.2 °F 100% 30.18 in 0.2 mi NW 16.1 mph - N/A Snow Snow
9:35 AM 30.2 °F 20.2 °F 30.2 °F 100% 30.19 in 0.5 mi NW 12.7 mph 18.4 mph N/A Snow Light Snow
9:55 AM 30.2 °F 21.3 °F 30.2 °F 100% 30.19 in 0.2 mi NNW 10.4 mph - N/A Snow Snow
10:15 AM 30.2 °F 20.2 °F 30.2 °F 100% 30.17 in 0.5 mi NNW 12.7 mph - N/A Snow Light Snow
10:35 AM 28.4 °F 17.0 °F 28.4 °F 100% 30.16 in 0.2 mi NNW 15.0 mph - N/A Snow Snow
10:55 AM 30.2 °F 17.8 °F 30.2 °F 100% 30.14 in 0.5 mi NNW 19.6 mph 25.3 mph N/A Snow Light Snow
11:15 AM 30.2 °F 18.5 °F 30.2 °F 100% 30.15 in 0.8 mi NNW 17.3 mph - N/A Snow Light Snow
11:35 AM 30.2 °F 18.9 °F 30.2 °F 100% 30.14 in 0.5 mi NNW 16.1 mph - N/A Snow Light Snow
11:55 AM 30.2 °F 18.9 °F 30.2 °F 100% 30.15 in 0.5 mi NNW 16.1 mph 21.9 mph N/A Snow Light Snow
12:15 PM 30.2 °F 18.1 °F 30.2 °F 100% 30.14 in 0.5 mi NNW 18.4 mph - N/A Snow Light Snow
12:35 PM 30.2 °F 17.8 °F 30.2 °F 100% 30.15 in 0.8 mi NNW 19.6 mph - N/A Snow Light Snow
12:55 PM 30.2 °F 18.9 °F 30.2 °F 100% 30.14 in 1.5 mi NNW 16.1 mph 25.3 mph N/A   Unknown
1:15 PM 30.2 °F 18.9 °F 30.2 °F 100% 30.14 in 2.5 mi NNW 16.1 mph - N/A Snow Light Snow
1:35 PM 32.0 °F 20.1 °F 30.2 °F 93% 30.13 in 6.0 mi North 19.6 mph - N/A Snow Light Snow
1:55 PM 32.0 °F 19.8 °F 30.2 °F 93% 30.12 in 8.0 mi NNW 20.7 mph - N/A   Mostly Cloudy
2:15 PM 32.0 °F 20.1 °F 28.4 °F 87% 30.12 in 9.0 mi NNW 19.6 mph 26.5 mph N/A   Overcast
2:35 PM 32.0 °F 20.1 °F 28.4 °F 87% 30.11 in 9.0 mi NNW 19.6 mph 26.5 mph N/A Snow Light Snow
2:55 PM 32.0 °F 19.2 °F 28.4 °F 87% 30.11 in 5.0 mi North 23.0 mph 28.8 mph N/A Snow Light Snow
3:15 PM 32.0 °F 19.8 °F 28.4 °F 87% 30.11 in 3.0 mi NNW 20.7 mph 29.9 mph N/A Snow Light Snow
3:35 PM 32.0 °F 18.9 °F 28.4 °F 87% 30.10 in 3.0 mi NNW 24.2 mph - N/A Snow Light Snow
3:55 PM 32.0 °F 19.8 °F 28.4 °F 87% 30.10 in 4.0 mi NNW 20.7 mph 27.6 mph N/A Snow Light Snow
4:35 PM 32.0 °F 19.2 °F 28.4 °F 87% 30.09 in 9.0 mi NNW 23.0 mph - N/A   Mostly Cloudy
4:55 PM 32.0 °F 19.2 °F 28.4 °F 87% 30.09 in 10.0 mi NNW 23.0 mph - N/A   Mostly Cloudy
5:15 PM 32.0 °F 19.5 °F 28.4 °F 87% 30.09 in 10.0 mi NNW 21.9 mph - N/A   Mostly Cloudy
5:35 PM 32.0 °F 20.1 °F 28.4 °F 87% 30.09 in 10.0 mi NNW 19.6 mph 27.6 mph N/A   Mostly Cloudy
5:55 PM 32.0 °F 19.8 °F 28.4 °F 87% 30.08 in 10.0 mi NNW 20.7 mph 28.8 mph N/A   Overcast
6:15 PM 32.0 °F 19.8 °F 28.4 °F 87% 30.09 in 10.0 mi NNW 20.7 mph 28.8 mph N/A   Overcast
6:35 PM 32.0 °F 18.9 °F 28.4 °F 87% 30.08 in 10.0 mi NNW 24.2 mph 29.9 mph N/A   Overcast
6:55 PM 32.0 °F 18.9 °F 28.4 °F 87% 30.08 in 9.0 mi NNW 24.2 mph - N/A   Overcast
7:15 PM 30.2 °F 17.4 °F 28.4 °F 93% 30.09 in 6.0 mi NNW 20.7 mph - N/A   Overcast
7:35 PM 30.2 °F 17.8 °F 28.4 °F 93% 30.09 in 7.0 mi NNW 19.6 mph - N/A Rain Light Freezing Rain
7:55 PM 30.2 °F 18.9 °F 28.4 °F 93% 30.09 in 5.0 mi NNW 16.1 mph 25.3 mph N/A Rain Light Freezing Rain
8:15 PM 30.2 °F 17.8 °F 28.4 °F 93% 30.08 in 4.0 mi NNW 19.6 mph - N/A Rain Light Freezing Rain
8:35 PM 30.2 °F 17.8 °F 28.4 °F 93% 30.08 in 6.0 mi NNW 19.6 mph 27.6 mph N/A Rain Light Freezing Rain
8:55 PM 30.2 °F 17.1 °F 28.4 °F 93% 30.07 in 9.0 mi NNW 21.9 mph 29.9 mph N/A Rain Light Freezing Rain
9:15 PM 30.2 °F 17.4 °F 28.4 °F 93% 30.08 in 8.0 mi NNW 20.7 mph 27.6 mph N/A   Overcast
9:35 PM 30.2 °F 17.1 °F 28.4 °F 93% 30.07 in 8.0 mi NNW 21.9 mph 27.6 mph N/A Rain Light Freezing Rain
9:55 PM 30.2 °F 16.8 °F 28.4 °F 93% 30.07 in 6.0 mi NNW 23.0 mph 29.9 mph N/A Snow Light Snow
10:15 PM 30.2 °F 18.5 °F 28.4 °F 93% 30.07 in 6.0 mi NNW 17.3 mph 24.2 mph N/A Snow Light Snow
10:35 PM 30.2 °F 17.1 °F 28.4 °F 93% 30.05 in 5.0 mi NNW 21.9 mph 33.4 mph N/A Snow Light Snow
10:55 PM 30.2 °F 17.4 °F 28.4 °F 93% 30.05 in 4.0 mi NW 20.7 mph 27.6 mph N/A Snow Light Snow
11:15 PM 30.2 °F 16.8 °F 28.4 °F 93% 30.04 in 2.5 mi NNW 23.0 mph - N/A Snow Light Snow
11:35 PM 30.2 °F 17.1 °F 28.4 °F 93% 30.04 in 2.5 mi NNW 21.9 mph - N/A Snow Light Snow
11:55 PM 28.4 °F 14.4 °F 28.4 °F 100% 30.03 in 1.2 mi NNW 23.0 mph - N/A Snow Light Snow